QPF
0.00 0.00 0.00 0.00 0.00 0.01 0.01 0.02 0.03 0.03 0.03 0.04 0.06 0.07 0.07 0.07 0.08 0.06 0.04 0.05 0.04 0.04 0.04 0.04 0.06 0.08 0.09 0.10 0.11 0.12 0.13 0.17 0.20 0.17 0.13 0.11 0.11 0.10
0.00 0.00 0.00 0.00 0.01 0.01 0.01 0.02 0.03 0.03 0.03 0.04 0.05 0.06 0.07 0.08 0.08 0.07 0.06 0.06 0.05 0.04 0.04 0.04 0.04 0.06 0.07 0.08 0.09 0.09 0.09 0.11 0.15 0.17 0.16 0.13 0.11 0.09
0.00 0.00 0.00 0.01 0.01 0.01 0.02 0.02 0.03 0.04 0.04 0.04 0.04 0.04 0.04 0.05 0.06 0.06 0.06 0.06 0.05 0.05 0.04 0.03 0.03 0.03 0.05 0.06 0.06 0.07 0.07 0.07 0.09 0.12 0.14 0.13 0.12 0.10
0.00 0.00 0.01 0.01 0.01 0.01 0.02 0.02 0.04 0.04 0.04 0.03 0.03 0.02 0.02 0.02 0.02 0.02 0.03 0.03 0.04 0.04 0.03 0.02 0.02 0.02 0.03 0.05 0.06 0.06 0.06 0.06 0.07 0.08 0.11 0.12 0.11 0.10
0.01 0.01 0.01 0.01 0.01 0.01 0.02 0.02 0.02 0.02 0.02 0.02 0.02 0.02 0.01 0.01 0.02 0.02 0.02 0.02 0.02 0.03 0.04 0.03 0.03 0.02 0.02 0.03 0.05 0.07 0.07 0.06 0.06 0.07 0.08 0.10 0.10 0.10
0.00 0.00 0.00 0.01 0.01 0.01 0.01 0.01 0.02 0.01 0.01 0.01 0.01 0.01 0.01 0.01 0.01 0.01 0.02 0.02 0.02 0.03 0.04 0.04 0.04 0.03 0.03 0.03 0.03 0.05 0.06 0.06 0.07 0.08 0.09 0.10 0.10 0.11
0.01 0.00 0.00 0.01 0.01 0.01 0.01 0.01 0.02 0.02 0.02 0.02 0.01 0.01 0.01 0.01 0.01 0.01 0.01 0.02 0.03 0.03 0.03 0.03 0.03 0.03 0.03 0.04 0.05 0.05 0.05 0.06 0.06 0.08 0.09 0.11 0.11 0.12
0.00 0.00 0.00 0.01 0.01 0.01 0.01 0.01 0.01 0.01 0.02 0.02 0.02 0.02 0.01 0.01 0.01 0.01 0.01 0.02 0.02 0.03 0.03 0.03 0.03 0.04 0.04 0.04 0.06 0.05 0.05 0.05 0.05 0.05 0.07 0.08 0.09 0.10
0.00 0.00 0.00 0.00 0.00 0.01 0.01 0.01 0.01 0.01 0.01 0.01 0.01 0.01 0.01 0.01 0.01 0.02 0.02 0.02 0.01 0.02 0.03 0.04 0.04 0.04 0.04 0.05 0.05 0.05 0.05 0.06 0.06 0.05 0.05 0.06 0.07 0.08
0.00 0.00 0.00 0.00 0.00 0.00 0.01 0.01 0.01 0.01 0.01 0.01 0.01 0.01 0.01 0.02 0.03 0.03 0.04 0.03 0.03 0.02 0.02 0.02 0.04 0.05 0.05 0.04 0.04 0.04 0.05 0.05 0.07 0.08 0.07 0.06 0.06 0.08
0.00 0.00 0.00 0.00 0.00 0.00 0.00 0.01 0.01 0.01 0.01 0.01 0.01 0.01 0.01 0.02 0.02 0.02 0.02 0.02 0.01 0.01 0.01 0.01 0.01 0.02 0.03 0.04 0.05 0.05 0.04 0.05 0.06 0.06 0.07 0.08 0.08 0.08
0.00 0.00 0.00 0.00 0.01 0.01 0.00 0.00 0.00 0.00 0.00 0.00 0.00 0.00 0.00 0.00 0.00 0.00 0.01 0.01 0.01 0.01 0.00 0.01 0.01 0.01 0.02 0.02 0.03 0.04 0.06 0.06 0.06 0.06 0.06 0.07 0.07 0.08
0.01 0.01 0.01 0.01 0.01 0.01 0.01 0.01 0.01 0.00 0.00 0.00 0.00 0.00 0.00 0.00 0.00 0.00 0.00 0.01 0.01 0.01 0.00 0.01 0.01 0.02 0.02 0.02 0.02 0.03 0.04 0.06 0.07 0.06 0.05 0.06 0.06 0.07
0.01 0.01 0.01 0.02 0.02 0.02 0.01 0.01 0.01 0.00 0.00 0.00 0.00 0.00 0.00 0.00 0.00 0.00 0.00 0.00 0.00 0.01 0.00 0.01 0.02 0.02 0.03 0.02 0.02 0.02 0.03 0.04 0.06 0.05 0.05 0.05 0.05 0.06
0.00 0.00 0.00 0.00 0.00 0.01 0.01 0.00 0.00 0.00 0.00 0.00 0.00 0.00 0.00 0.00 0.00 0.00 0.00 0.00 0.00 0.00 0.00 0.00 0.01 0.01 0.02 0.03 0.02 0.02 0.03 0.04 0.05 0.04 0.04 0.03 0.04 0.05
0.00 0.00 0.00 0.00 0.00 0.00 0.00 0.00 0.00 0.00 0.00 0.00 0.00 0.00 0.00 0.00 0.00 0.00 0.00 0.00 0.00 0.00 0.00 0.00 0.00 0.01 0.02 0.02 0.02 0.03 0.03 0.03 0.04 0.04 0.03 0.03 0.02 0.03
0.00 0.00 0.00 0.00 0.00 0.00 0.00 0.00 0.00 0.00 0.00 0.00 0.00 0.00 0.00 0.00 0.00 0.00 0.00 0.01 0.01 0.00 0.00 0.00 0.00 0.01 0.01 0.02 0.03 0.03 0.03 0.03 0.03 0.04 0.04 0.03 0.03 0.02
0.00 0.00 0.00 0.00 0.00 0.00 0.00 0.00 0.00 0.00 0.00 0.00 0.00 0.00 0.01 0.01 0.00 0.00 0.00 0.01 0.01 0.01 0.00 0.00 0.00 0.01 0.01 0.01 0.01 0.02 0.03 0.03 0.03 0.03 0.04 0.04 0.03 0.03
0.00 0.00 0.00 0.00 0.00 0.00 0.00 0.00 0.00 0.00 0.00 0.00 0.01 0.01 0.01 0.01 0.01 0.01 0.01 0.01 0.01 0.01 0.00 0.01 0.01 0.02 0.02 0.01 0.01 0.01 0.03 0.03 0.03 0.03 0.03 0.04 0.04 0.03
0.00 0.00 0.00 0.00 0.00 0.00 0.00 0.00 0.00 0.00 0.00 0.00 0.01 0.01 0.01 0.01 0.01 0.01 0.01 0.01 0.01 0.01 0.01 0.00 0.01 0.02 0.04 0.03 0.03 0.01 0.01 0.03 0.03 0.03 0.03 0.03 0.03 0.03
0.00 0.00 0.00 0.00 0.00 0.00 0.00 0.00 0.00 0.00 0.00 0.00 0.01 0.01 0.01 0.01 0.01 0.01 0.01 0.01 0.01 0.01 0.01 0.01 0.00 0.01 0.02 0.03 0.03 0.01 0.01 0.01 0.02 0.04 0.04 0.04 0.04 0.03
0.00 0.00 0.00 0.00 0.00 0.00 0.01 0.01 0.01 0.01 0.00 0.01 0.01 0.01 0.01 0.01 0.01 0.01 0.01 0.01 0.01 0.01 0.01 0.00 0.00 0.01 0.02 0.03 0.02 0.01 0.01 0.01 0.01 0.02 0.03 0.05 0.06 0.06
0.00 0.01 0.00 0.00 0.00 0.01 0.01 0.01 0.01 0.01 0.00 0.01 0.01 0.01 0.01 0.01 0.01 0.01 0.01 0.02 0.02 0.02 0.01 0.01 0.00 0.01 0.01 0.02 0.02 0.01 0.01 0.01 0.02 0.02 0.02 0.03 0.03 0.04
MSLP
1020.55 1020.57 1020.58 1020.57 1020.52 1020.39 1020.19 1019.92 1019.60 1019.24 1018.88 1018.53 1018.21 1017.92 1017.66 1017.41 1017.15 1016.88 1016.58 1016.25 1015.90 1015.54 1015.18 1014.83 1014.49 1014.17 1013.85 1013.53 1013.19 1012.81 1012.40 1011.96 1011.48 1010.97 1010.45 1009.92 1009.37 1008.83
1020.47 1020.51 1020.55 1020.58 1020.56 1020.48 1020.33 1020.10 1019.81 1019.48 1019.13 1018.78 1018.45 1018.14 1017.84 1017.56 1017.27 1016.96 1016.63 1016.28 1015.92 1015.55 1015.18 1014.82 1014.48 1014.15 1013.84 1013.51 1013.18 1012.82 1012.43 1012.00 1011.55 1011.07 1010.56 1010.03 1009.47 1008.89
1020.28 1020.33 1020.40 1020.45 1020.48 1020.44 1020.35 1020.18 1019.95 1019.67 1019.37 1019.04 1018.72 1018.41 1018.10 1017.78 1017.46 1017.12 1016.75 1016.36 1015.96 1015.55 1015.15 1014.76 1014.38 1014.03 1013.69 1013.35 1013.01 1012.66 1012.29 1011.89 1011.48 1011.03 1010.56 1010.06 1009.52 1008.93
1020.02 1020.08 1020.16 1020.23 1020.29 1020.31 1020.26 1020.16 1020.00 1019.78 1019.53 1019.26 1018.97 1018.66 1018.35 1018.02 1017.67 1017.30 1016.89 1016.46 1016.01 1015.55 1015.10 1014.66 1014.24 1013.84 1013.46 1013.10 1012.74 1012.38 1012.02 1011.65 1011.27 1010.87 1010.45 1009.99 1009.49 1008.94
1019.73 1019.79 1019.86 1019.95 1020.03 1020.08 1020.09 1020.04 1019.94 1019.78 1019.59 1019.36 1019.10 1018.82 1018.52 1018.19 1017.83 1017.43 1016.99 1016.53 1016.04 1015.54 1015.03 1014.54 1014.07 1013.63 1013.20 1012.80 1012.42 1012.04 1011.68 1011.32 1010.96 1010.60 1010.22 1009.81 1009.36 1008.86
1019.43 1019.47 1019.54 1019.63 1019.72 1019.79 1019.82 1019.81 1019.75 1019.64 1019.49 1019.30 1019.07 1018.82 1018.53 1018.21 1017.84 1017.44 1016.99 1016.51 1016.00 1015.47 1014.94 1014.41 1013.90 1013.40 1012.94 1012.49 1012.07 1011.67 1011.29 1010.92 1010.57 1010.22 1009.87 1009.51 1009.11 1008.66
1019.11 1019.14 1019.19 1019.27 1019.35 1019.42 1019.46 1019.46 1019.42 1019.33 1019.20 1019.04 1018.84 1018.60 1018.34 1018.03 1017.69 1017.30 1016.86 1016.39 1015.87 1015.34 1014.79 1014.25 1013.71 1013.18 1012.67 1012.19 1011.73 1011.29 1010.87 1010.48 1010.10 1009.75 1009.41 1009.07 1008.71 1008.31
1018.76 1018.78 1018.82 1018.88 1018.95 1019.00 1019.03 1019.02 1018.96 1018.87 1018.75 1018.59 1018.40 1018.18 1017.94 1017.66 1017.35 1016.99 1016.59 1016.14 1015.65 1015.14 1014.60 1014.05 1013.50 1012.96 1012.42 1011.90 1011.39 1010.91 1010.44 1010.00 1009.59 1009.21 1008.84 1008.50 1008.15 1007.79
1018.37 1018.38 1018.42 1018.46 1018.50 1018.53 1018.52 1018.49 1018.41 1018.30 1018.16 1017.99 1017.81 1017.61 1017.39 1017.14 1016.86 1016.55 1016.19 1015.79 1015.35 1014.87 1014.36 1013.83 1013.28 1012.73 1012.17 1011.62 1011.07 1010.53 1010.01 1009.51 1009.04 1008.60 1008.19 1007.81 1007.45 1007.10
1017.93 1017.95 1017.97 1018.00 1018.02 1018.02 1017.98 1017.90 1017.79 1017.65 1017.49 1017.32 1017.13 1016.94 1016.74 1016.53 1016.30 1016.03 1015.73 1015.38 1014.99 1014.55 1014.08 1013.57 1013.04 1012.48 1011.92 1011.34 1010.75 1010.16 1009.58 1009.02 1008.47 1007.96 1007.49 1007.06 1006.66 1006.28
1017.44 1017.47 1017.49 1017.51 1017.51 1017.48 1017.41 1017.30 1017.16 1016.99 1016.81 1016.62 1016.44 1016.26 1016.08 1015.90 1015.71 1015.49 1015.23 1014.94 1014.59 1014.19 1013.75 1013.27 1012.75 1012.20 1011.63 1011.03 1010.41 1009.78 1009.14 1008.51 1007.90 1007.31 1006.77 1006.27 1005.81 1005.40
1016.92 1016.95 1016.98 1017.00 1016.99 1016.94 1016.85 1016.71 1016.55 1016.36 1016.16 1015.96 1015.78 1015.62 1015.46 1015.31 1015.15 1014.96 1014.75 1014.48 1014.17 1013.80 1013.39 1012.92 1012.41 1011.86 1011.28 1010.67 1010.02 1009.36 1008.68 1008.00 1007.32 1006.67 1006.06 1005.49 1004.98 1004.52
1016.37 1016.42 1016.46 1016.48 1016.46 1016.40 1016.30 1016.15 1015.97 1015.77 1015.57 1015.37 1015.20 1015.04 1014.90 1014.77 1014.63 1014.47 1014.27 1014.03 1013.73 1013.37 1012.96 1012.50 1011.99 1011.43 1010.84 1010.21 1009.55 1008.87 1008.16 1007.44 1006.72 1006.02 1005.36 1004.74 1004.17 1003.67
1015.82 1015.88 1015.93 1015.96 1015.94 1015.88 1015.77 1015.62 1015.43 1015.23 1015.03 1014.85 1014.68 1014.54 1014.41 1014.29 1014.16 1014.01 1013.81 1013.56 1013.25 1012.88 1012.46 1011.98 1011.45 1010.88 1010.27 1009.63 1008.96 1008.26 1007.54 1006.81 1006.07 1005.35 1004.65 1004.00 1003.40 1002.86
1015.27 1015.35 1015.41 1015.44 1015.43 1015.37 1015.26 1015.11 1014.93 1014.74 1014.55 1014.38 1014.23 1014.09 1013.97 1013.85 1013.72 1013.55 1013.33 1013.06 1012.72 1012.31 1011.85 1011.33 1010.77 1010.17 1009.55 1008.89 1008.21 1007.50 1006.78 1006.04 1005.31 1004.58 1003.88 1003.22 1002.61 1002.06
1014.74 1014.82 1014.89 1014.93 1014.92 1014.86 1014.76 1014.62 1014.45 1014.28 1014.11 1013.95 1013.81 1013.68 1013.56 1013.43 1013.28 1013.08 1012.82 1012.50 1012.10 1011.64 1011.12 1010.55 1009.94 1009.30 1008.64 1007.96 1007.26 1006.55 1005.83 1005.11 1004.39 1003.68 1002.99 1002.34 1001.74 1001.18
1014.21 1014.31 1014.38 1014.41 1014.41 1014.36 1014.26 1014.13 1013.99 1013.83 1013.68 1013.54 1013.41 1013.29 1013.16 1013.01 1012.82 1012.57 1012.26 1011.87 1011.40 1010.87 1010.27 1009.63 1008.96 1008.26 1007.55 1006.84 1006.12 1005.40 1004.69 1003.97 1003.27 1002.58 1001.92 1001.29 1000.70 1000.16
1013.69 1013.79 1013.86 1013.90 1013.89 1013.85 1013.77 1013.65 1013.53 1013.40 1013.27 1013.15 1013.03 1012.90 1012.76 1012.58 1012.34 1012.03 1011.64 1011.17 1010.62 1010.00 1009.32 1008.59 1007.84 1007.08 1006.31 1005.56 1004.81 1004.07 1003.35 1002.64 1001.95 1001.28 1000.64 1000.03 999.46 998.93
1013.16 1013.26 1013.34 1013.38 1013.38 1013.34 1013.27 1013.18 1013.08 1012.98 1012.87 1012.77 1012.66 1012.53 1012.36 1012.13 1011.84 1011.46 1010.99 1010.43 1009.78 1009.06 1008.29 1007.48 1006.64 1005.81 1004.98 1004.17 1003.39 1002.63 1001.89 1001.17 1000.48 999.82 999.19 998.59 998.03 997.51
1012.63 1012.73 1012.81 1012.85 1012.86 1012.84 1012.79 1012.73 1012.65 1012.58 1012.50 1012.41 1012.30 1012.15 1011.95 1011.68 1011.32 1010.86 1010.31 1009.65 1008.91 1008.09 1007.23 1006.33 1005.42 1004.52 1003.63 1002.77 1001.95 1001.15 1000.39 999.66 998.96 998.29 997.65 997.04 996.47 995.94
1012.08 1012.19 1012.27 1012.32 1012.34 1012.34 1012.32 1012.28 1012.24 1012.19 1012.13 1012.05 1011.94 1011.77 1011.53 1011.20 1010.77 1010.24 1009.59 1008.85 1008.02 1007.12 1006.18 1005.21 1004.24 1003.28 1002.34 1001.44 1000.58 999.76 998.97 998.21 997.49 996.79 996.12 995.49 994.89 994.32
1011.53 1011.65 1011.74 1011.80 1011.83 1011.85 1011.85 1011.85 1011.83 1011.81 1011.76 1011.68 1011.55 1011.35 1011.07 1010.68 1010.18 1009.57 1008.85 1008.03 1007.13 1006.16 1005.16 1004.15 1003.14 1002.14 1001.19 1000.26 999.38 998.53 997.72 996.93 996.17 995.44 994.74 994.06 993.41 992.80
1010.97 1011.11 1011.21 1011.28 1011.33 1011.37 1011.40 1011.41 1011.42 1011.41 1011.36 1011.27 1011.12 1010.88 1010.55 1010.10 1009.54 1008.86 1008.07 1007.19 1006.24 1005.24 1004.21 1003.18 1002.16 1001.17 1000.21 999.29 998.40 997.54 996.71 995.90 995.11 994.34 993.58 992.85 992.15 991.47
Thickness
5509 5508 5507 5506 5504 5503 5501 5500 5499 5501 5505 5508 5507 5508 5508 5510 5511 5512 5515 5517 5521 5525 5529 5532 5535 5539 5543 5547 5551 5554 5557 5561 5564 5566 5570 5573 5576 5580
5498 5496 5495 5493 5492 5490 5489 5487 5486 5485 5487 5491 5490 5491 5492 5494 5495 5496 5498 5502 5505 5509 5513 5518 5521 5525 5529 5533 5537 5540 5543 5547 5551 5553 5557 5561 5565 5568
5487 5485 5483 5482 5480 5478 5476 5474 5472 5472 5472 5474 5474 5475 5476 5478 5479 5481 5483 5486 5489 5493 5497 5501 5506 5510 5514 5518 5522 5526 5529 5532 5537 5540 5544 5549 5553 5557
5476 5473 5471 5470 5467 5465 5463 5461 5459 5458 5458 5458 5460 5460 5461 5462 5464 5465 5467 5469 5473 5477 5481 5485 5490 5494 5499 5503 5508 5511 5514 5518 5522 5526 5530 5536 5541 5544
5465 5462 5460 5457 5455 5452 5450 5448 5446 5446 5444 5444 5445 5445 5445 5447 5448 5450 5451 5453 5457 5460 5464 5468 5473 5478 5482 5488 5492 5497 5501 5505 5508 5512 5516 5521 5527 5531
5455 5452 5449 5446 5443 5440 5438 5436 5434 5432 5431 5430 5430 5431 5431 5431 5432 5433 5436 5438 5440 5444 5447 5451 5456 5460 5465 5471 5476 5481 5485 5489 5493 5498 5503 5507 5512 5517
5444 5441 5439 5436 5433 5430 5428 5425 5423 5421 5419 5417 5417 5416 5417 5416 5416 5417 5418 5422 5425 5428 5432 5435 5440 5445 5448 5453 5458 5463 5468 5473 5477 5482 5488 5492 5497 5503
5434 5431 5428 5426 5423 5420 5418 5416 5413 5410 5408 5405 5404 5402 5402 5401 5401 5401 5401 5404 5409 5413 5415 5420 5424 5429 5432 5437 5441 5446 5451 5456 5462 5467 5472 5477 5482 5488
5424 5420 5418 5416 5413 5409 5407 5405 5402 5400 5398 5395 5392 5389 5388 5387 5386 5386 5386 5387 5390 5395 5399 5406 5409 5413 5417 5421 5425 5430 5435 5440 5446 5451 5457 5462 5468 5473
5414 5411 5408 5405 5403 5400 5397 5394 5390 5388 5386 5384 5381 5378 5376 5374 5373 5372 5372 5374 5378 5380 5382 5388 5394 5397 5402 5406 5409 5414 5419 5424 5429 5434 5440 5446 5452 5458
5406 5403 5399 5396 5393 5391 5387 5383 5380 5377 5375 5373 5370 5368 5366 5364 5362 5361 5360 5361 5365 5368 5367 5369 5376 5381 5388 5392 5395 5398 5402 5406 5411 5417 5423 5429 5436 5442
5396 5393 5391 5388 5384 5381 5377 5373 5370 5367 5365 5362 5359 5357 5354 5352 5350 5348 5346 5346 5347 5351 5354 5353 5357 5359 5370 5378 5380 5382 5386 5390 5395 5401 5407 5412 5419 5426
5386 5383 5381 5378 5375 5372 5368 5364 5361 5358 5355 5352 5348 5346 5344 5341 5339 5337 5335 5333 5332 5334 5337 5336 5339 5341 5345 5357 5365 5368 5371 5375 5380 5386 5391 5397 5403 5409
5377 5374 5371 5369 5365 5362 5358 5355 5352 5348 5344 5341 5337 5335 5332 5330 5328 5326 5324 5323 5321 5321 5322 5321 5323 5326 5330 5338 5347 5354 5357 5361 5365 5371 5377 5383 5389 5395
5368 5365 5362 5359 5356 5352 5348 5345 5341 5337 5333 5329 5327 5324 5321 5319 5317 5316 5315 5314 5313 5312 5312 5311 5312 5314 5316 5321 5329 5336 5341 5348 5352 5357 5363 5368 5375 5381
5359 5356 5353 5350 5346 5343 5338 5334 5330 5326 5322 5319 5316 5313 5310 5308 5306 5305 5304 5304 5304 5305 5303 5302 5303 5304 5307 5310 5315 5321 5325 5331 5339 5343 5349 5356 5362 5368
5350 5346 5342 5338 5335 5331 5327 5323 5320 5316 5312 5309 5306 5303 5301 5298 5297 5295 5293 5293 5292 5294 5295 5295 5294 5295 5298 5300 5305 5311 5315 5320 5325 5330 5336 5344 5352 5357
5342 5337 5334 5330 5326 5322 5318 5314 5310 5306 5302 5299 5295 5292 5290 5288 5287 5285 5283 5282 5282 5283 5284 5285 5285 5288 5292 5296 5298 5301 5305 5309 5314 5319 5323 5331 5341 5348
5333 5329 5325 5321 5317 5313 5309 5304 5300 5296 5293 5289 5285 5282 5280 5278 5277 5275 5274 5273 5273 5274 5274 5274 5274 5275 5279 5286 5292 5292 5293 5298 5302 5308 5313 5319 5328 5338
5324 5320 5316 5312 5308 5304 5299 5295 5291 5287 5283 5280 5277 5274 5271 5269 5268 5266 5265 5264 5265 5266 5266 5266 5265 5265 5267 5272 5280 5285 5284 5286 5291 5297 5304 5310 5318 5327
5316 5312 5308 5304 5300 5295 5291 5286 5282 5278 5275 5271 5269 5266 5263 5261 5260 5258 5257 5257 5257 5257 5258 5259 5259 5259 5260 5263 5269 5278 5280 5281 5283 5287 5293 5299 5308 5318
5309 5305 5301 5296 5292 5287 5282 5278 5274 5271 5268 5264 5261 5259 5256 5254 5252 5251 5251 5250 5251 5251 5252 5253 5253 5253 5254 5256 5262 5268 5273 5276 5279 5282 5287 5291 5296 5307
5302 5298 5293 5289 5284 5279 5275 5271 5267 5264 5261 5257 5255 5252 5250 5248 5246 5245 5245 5245 5245 5246 5247 5248 5249 5249 5250 5252 5255 5260 5264 5269 5273 5278 5285 5289 5294 5301